GW5113 Weather Reports


time (UTC)temp
C
wind
direction
speed
KPH
gust
KPH
rain 1hr
cm
rain 24hr
cm
rain mn
cm
humidity
%
barometer
mb
20260502160534 12 136 1.6 4.8 0.00 0.00 0.00 42 1018.5
20260502151941 10 126 3.2 9.7 0.00 0.00 0.00 49 1018.6
20260502151438 10 348 4.8 16.1 0.00 0.00 0.00 50 1018.9
20260502150935 10 37 1.6 4.8 0.00 0.00 0.00 55 1018.9
20260502150432 10 202 1.6 4.8 0.00 0.00 0.00 52 1019.1
20260502130317 5 198 0.0 1.6 0.00 0.00 0.00 96 1019.0
20260502123803 3 43 0.0 0.0 0.00 0.00 0.00 99 1019.3
20260502123300 3 56 1.6 1.6 0.00 0.00 0.00 99 1019.3
20260502122757 2 50 0.0 0.0 0.00 0.00 0.00 99 1019.2
20260502122253 2 58 0.0 0.0 0.00 0.00 0.00 99 1019.4
20260502121751 2 64 0.0 0.0 0.00 0.00 0.00 99 1019.3
20260502121249 2 64 0.0 1.6 0.00 0.00 0.00 99 1019.2
20260502120745 1 110 0.0 0.0 0.00 0.00 0.00 99 1019.4
20260502120242 1 141 0.0 0.0 0.00 0.00 0.00 99 1019.2
20260502115740 1 136 0.0 0.0 0.00 0.00 0.00 99 1019.3
20260502115236 1 153 0.0 0.0 0.00 0.00 0.00 99 1019.2
20260502114732 1 152 0.0 0.0 0.00 0.00 0.00 99 1019.3
20260502114229 1 151 0.0 0.0 0.00 0.00 0.00 99 1019.1
20260502113727 0 147 0.0 0.0 0.00 0.00 0.00 99 1019.2
20260502113224 0 148 0.0 0.0 0.00 0.00 0.00 99 1019.1
20260502112722 0 170 0.0 0.0 0.00 0.00 0.00 99 1019.0
20260502112220 0 170 0.0 0.0 0.00 0.00 0.00 99 1019.1
20260502111716 0 170 0.0 0.0 0.00 0.00 0.00 99 1019.0
20260502111214 0 170 0.0 0.0 0.00 0.00 0.00 99 1019.0
20260502110712 0 170 0.0 0.0 0.00 0.00 0.00 99 1019.0
20260502110209 0 170 0.0 0.0 0.00 0.00 0.00 99 1018.9
20260502105707 0 170 0.0 0.0 0.00 0.00 0.00 99 1019.0
20260502105203 0 170 0.0 0.0 0.00 0.00 0.00 99 1018.9
20260502104700 0 170 0.0 0.0 0.00 0.00 0.00 99 1019.0
20260502104158 0 170 0.0 0.0 0.00 0.00 0.00 99 1019.3
20260502103655 0 170 0.0 0.0 0.00 0.00 0.00 99 1019.0
20260502103153 0 170 0.0 0.0 0.00 0.00 0.00 99 1019.1
20260502102650 0 170 0.0 0.0 0.00 0.00 0.00 99 1019.1
20260502102146 0 170 0.0 0.0 0.00 0.00 0.00 99 1019.2
20260502101644 0 170 0.0 0.0 0.00 0.00 0.00 99 1019.4
20260502101142 0 170 0.0 0.0 0.00 0.00 0.00 99 1019.1
20260502100641 0 170 0.0 0.0 0.00 0.00 0.00 99 1019.3
20260502100138 0 170 0.0 0.0 0.00 0.00 0.00 99 1019.1
20260502091113 0 170 0.0 0.0 0.00 0.00 0.00 99 1019.2
20260502090609 0 170 0.0 0.0 0.00 0.00 0.00 99 1019.3
20260502090107 0 170 0.0 0.0 0.00 0.00 0.00 99 1019.2
20260502071504 0 170 0.0 0.0 0.00 0.00 0.00 99 1018.7
20260502071002 0 171 0.0 0.0 0.00 0.00 0.00 99 1018.9
20260502070500 0 171 0.0 0.0 0.00 0.00 0.00 99 1018.6
20260502065958 0 170 0.0 0.0 0.00 0.00 0.00 99 1018.6
20260502065456 0 169 0.0 0.0 0.00 0.00 0.00 99 1018.9
20260502064954 0 172 0.0 0.0 0.00 0.00 0.00 99 1019.1
20260502064452 0 170 0.0 0.0 0.00 0.00 0.00 99 1019.1
20260502063948 0 169 0.0 0.0 0.00 0.00 0.00 99 1019.3
20260502063447 1 169 0.0 0.0 0.00 0.00 0.00 99 1019.3
20260502062944 1 168 0.0 0.0 0.00 0.00 0.00 99 1019.2
20260502062441 1 168 0.0 0.0 0.00 0.00 0.00 99 1019.3
20260502061939 1 169 0.0 0.0 0.00 0.00 0.00 99 1019.6
20260502061437 1 168 0.0 0.0 0.00 0.00 0.00 99 1019.4
20260502060933 1 171 0.0 0.0 0.00 0.00 0.00 99 1019.6
20260502060428 1 170 0.0 0.0 0.00 0.00 0.00 99 1019.5
20260502055925 1 170 0.0 0.0 0.00 0.00 0.00 99 1019.5
20260502055423 1 170 0.0 0.0 0.00 0.00 0.00 99 1019.5
20260502054923 1 170 0.0 0.0 0.00 0.00 0.00 99 1019.5
20260502054420 1 170 0.0 0.0 0.00 0.00 0.00 99 1019.6
20260502053917 1 172 0.0 0.0 0.00 0.00 0.00 99 1019.5
20260502053414 1 172 0.0 0.0 0.00 0.00 0.00 99 1019.5
20260502052912 1 172 0.0 0.0 0.00 0.00 0.00 99 1019.5
20260502052410 1 172 0.0 0.0 0.00 0.00 0.00 99 1019.6
20260502051908 1 172 0.0 0.0 0.00 0.00 0.00 99 1019.5
20260502051406 1 172 0.0 0.0 0.00 0.00 0.00 99 1019.5
20260502050902 1 172 0.0 0.0 0.00 0.00 0.00 99 1019.8
20260502050359 1 172 0.0 0.0 0.00 0.00 0.00 99 1019.6
20260502045856 1 172 0.0 0.0 0.00 0.00 0.00 99 1019.8
20260502045353 1 172 0.0 0.0 0.00 0.00 0.00 99 1019.9
20260502044850 2 172 0.0 0.0 0.00 0.00 0.00 99 1019.8
20260502044345 2 172 0.0 0.0 0.00 0.00 0.00 99 1019.9
20260502043843 2 172 0.0 0.0 0.00 0.00 0.00 99 1019.9
20260502043341 2 172 0.0 0.0 0.00 0.00 0.00 99 1019.8
20260502042840 2 172 0.0 0.0 0.00 0.00 0.00 99 1019.9
20260502042337 2 172 0.0 0.0 0.00 0.00 0.00 99 1019.8
20260502041835 2 172 0.0 0.0 0.00 0.00 0.00 99 1019.6
20260502041332 2 170 0.0 0.0 0.00 0.00 0.00 99 1019.6
20260502040829 2 170 0.0 0.0 0.00 0.00 0.00 99 1019.6
20260502040326 2 170 0.0 0.0 0.00 0.00 0.00 99 1019.6
20260502035822 2 170 0.0 0.0 0.00 0.00 0.00 99 1019.5
20260502035319 2 170 0.0 0.0 0.00 0.00 0.00 99 1019.6
20260502034816 2 170 0.0 0.0 0.00 0.00 0.00 98 1019.7
20260502034315 3 171 0.0 0.0 0.00 0.00 0.00 98 1019.6
20260502033813 3 171 0.0 0.0 0.00 0.00 0.00 98 1019.5
20260502033310 3 170 0.0 0.0 0.00 0.00 0.00 98 1019.5
20260502032806 3 170 0.0 0.0 0.00 0.00 0.00 98 1019.6
20260502032305 3 170 0.0 0.0 0.00 0.00 0.00 98 1019.6
20260502031800 3 170 0.0 0.0 0.00 0.00 0.00 97 1019.5
20260502031258 3 170 0.0 0.0 0.00 0.00 0.00 97 1019.7
20260502030757 3 170 0.0 0.0 0.00 0.00 0.00 97 1019.4
20260502030254 3 170 0.0 0.0 0.00 0.00 0.00 97 1019.6
20260502025751 4 170 0.0 0.0 0.00 0.00 0.00 96 1019.7
20260502025249 4 170 0.0 0.0 0.00 0.00 0.00 96 1019.5
20260502024746 4 170 0.0 0.0 0.00 0.00 0.00 95 1019.4
20260502024244 4 170 0.0 0.0 0.00 0.00 0.00 95 1019.5
20260502023742 5 170 0.0 0.0 0.00 0.00 0.00 94 1019.3
20260502023239 5 170 0.0 0.0 0.00 0.00 0.00 93 1019.3
20260502022737 5 170 0.0 0.0 0.00 0.00 0.00 92 1019.2
20260502022233 5 170 0.0 0.0 0.00 0.00 0.00 92 1019.1
20260502021730 5 170 0.0 0.0 0.00 0.00 0.00 91 1019.2
20260502021228 6 170 0.0 0.0 0.00 0.00 0.00 90 1018.9
20260502020725 6 171 0.0 0.0 0.00 0.00 0.00 89 1018.9
20260502020222 6 171 0.0 0.0 0.00 0.00 0.00 88 1018.9
20260502015720 6 171 0.0 0.0 0.00 0.00 0.00 86 1018.9
20260502015216 7 163 0.0 0.0 0.00 0.00 0.00 86 1018.6
20260502014714 7 163 0.0 0.0 0.00 0.00 0.00 83 1018.6
20260502014210 7 152 0.0 0.0 0.00 0.00 0.00 85 1018.5
20260502013706 7 163 0.0 1.6 0.00 0.00 0.00 84 1018.5
20260502013202 7 180 0.0 0.0 0.00 0.00 0.00 80 1018.5
20260502012659 8 197 0.0 0.0 0.00 0.00 0.00 78 1018.2
20260502012157 8 199 0.0 0.0 0.00 0.00 0.00 78 1018.0
20260502011653 8 192 0.0 0.0 0.00 0.00 0.00 74 1018.0
20260502011149 9 342 0.0 0.0 0.00 0.00 0.00 75 1017.9
20260502010647 9 125 3.2 3.2 0.00 0.00 0.00 73 1017.7
20260502010143 9 41 3.2 4.8 0.00 0.00 0.00 71 1017.7
20260502005641 10 103 4.8 6.4 0.00 0.00 0.00 72 1017.7
20260502005138 10 18 1.6 4.8 0.00 0.00 0.00 74 1017.3
20260502004634 10 27 0.0 4.8 0.00 0.00 0.00 73 1017.2
20260502004131 10 243 1.6 1.6 0.00 0.00 0.00 78 1017.3
20260502003629 10 324 0.0 1.6 0.00 0.00 0.00 81 1017.0
20260502003126 10 324 1.6 1.6 0.00 0.00 0.00 81 1017.1
20260502002622 9 170 0.0 3.2 0.00 0.00 0.00 83 1016.8
20260502002120 9 221 0.0 0.0 0.00 0.00 0.00 94 1016.7
20260502001617 9 192 0.0 0.0 0.00 0.00 0.00 94 1016.7
20260502001114 9 192 0.0 0.0 0.00 0.00 0.00 94 1016.5
20260502000612 9 192 0.0 0.0 0.00 0.00 0.00 93 1016.4
20260502000109 9 192 0.0 0.0 0.00 0.00 0.00 93 1016.1
20260501235605 10 192 0.0 0.0 0.00 0.00 0.00 93 1016.0
20260501235101 10 192 0.0 0.0 0.00 0.00 0.00 92 1016.0
20260501234557 10 192 0.0 0.0 0.00 0.00 0.00 92 1015.8
20260501234055 10 192 0.0 0.0 0.00 0.00 0.00 92 1015.8
20260501233553 10 192 0.0 0.0 0.00 0.00 0.00 91 1015.8
20260501233049 10 183 0.0 0.0 0.00 0.00 0.00 91 1015.8
20260501232545 10 183 0.0 0.0 0.00 0.00 0.00 90 1015.7
20260501232043 10 202 0.0 0.0 0.00 0.00 0.00 89 1015.9
20260501231541 10 202 0.0 0.0 0.00 0.00 0.00 87 1015.5
20260501231039 10 202 0.0 0.0 0.00 0.00 0.00 87 1015.7
20260501230537 10 202 0.0 0.0 0.00 0.00 0.00 90 1015.8
20260501230035 10 202 0.0 0.0 0.00 0.00 0.00 90 1015.7
20260501225532 10 202 0.0 0.0 0.00 0.00 0.00 90 1015.5
20260501225028 10 202 0.0 0.0 0.00 0.00 0.00 90 1015.6
20260501224526 10 162 0.0 0.0 0.00 0.00 0.00 91 1015.8
20260501224023 10 162 0.0 0.0 0.00 0.00 0.00 91 1015.8
20260501223519 10 192 0.0 0.0 0.00 0.00 0.00 90 1015.6
20260501223015 10 193 0.0 0.0 0.00 0.00 0.00 89 1015.6
20260501222512 10 174 0.0 0.0 0.00 0.00 0.00 87 1015.5
20260501222009 10 174 0.0 0.0 0.00 0.00 0.00 87 1015.8
20260501221505 10 146 0.0 0.0 0.00 0.00 0.00 83 1015.8
20260501221003 10 317 0.0 0.0 0.00 0.00 0.00 83 1015.8
20260501220500 10 317 0.0 0.0 0.00 0.00 0.00 81 1015.8
20260501215956 10 317 0.0 1.6 0.00 0.00 0.00 81 1015.7
20260501215453 10 317 0.0 0.0 0.00 0.00 0.00 80 1015.9
20260501214948 11 317 1.6 3.2 0.00 0.00 0.00 79 1015.7
20260501214444 11 346 0.0 3.2 0.00 0.00 0.00 74 1015.6
20260501213940 11 28 0.0 3.2 0.00 0.00 0.00 71 1015.6
20260501213437 11 128 1.6 1.6 0.00 0.00 0.00 73 1015.3
20260501212932 12 230 0.0 9.7 0.00 0.00 0.00 73 1015.4
20260501212430 12 223 0.0 1.6 0.00 0.00 0.00 72 1015.5
20260501211926 12 92 1.6 1.6 0.00 0.00 0.00 74 1015.3
20260501211424 12 311 1.6 1.6 0.00 0.00 0.00 71 1015.3
20260501210921 12 64 1.6 3.2 0.00 0.00 0.00 74 1015.0
20260501210418 12 54 4.8 9.7 0.00 0.00 0.00 72 1015.3
20260501205914 13 37 4.8 6.4 0.00 0.00 0.00 73 1015.1
20260501205411 13 47 3.2 3.2 0.00 0.00 0.00 73 1015.1
20260501204908 13 39 6.4 11.3 0.00 0.00 0.00 71 1015.0
20260501204404 13 116 3.2 4.8 0.00 0.00 0.00 70 1015.0
20260501203900 13 193 0.0 9.7 0.00 0.00 0.00 72 1014.9
20260501203358 13 121 4.8 9.7 0.00 0.00 0.00 71 1014.7
20260501202855 12 71 1.6 4.8 0.00 0.00 0.00 73 1014.9
20260501202352 12 114 0.0 3.2 0.00 0.00 0.00 72 1014.4
20260501201848 12 171 0.0 4.8 0.00 0.00 0.00 74 1014.9
20260501201345 12 64 3.2 4.8 0.00 0.00 0.00 71 1014.6
20260501200842 13 157 3.2 6.4 0.00 0.00 0.00 71 1014.4
20260501200339 13 52 8.0 11.3 0.00 0.00 0.00 70 1014.6
20260501195837 12 98 0.0 4.8 0.00 0.00 0.00 71 1014.4
20260501195332 12 55 1.6 4.8 0.00 0.00 0.00 70 1014.9
20260501194829 13 106 1.6 17.7 0.00 0.00 0.00 68 1014.8
20260501194325 14 200 3.2 6.4 0.00 0.00 0.00 69 1014.7
20260501193821 14 200 1.6 1.6 0.00 0.00 0.00 66 1014.4
20260501193320 15 263 0.0 1.6 0.00 0.00 0.00 69 1014.1
20260501192817 15 182 0.0 4.8 0.00 0.00 0.00 59 1014.1
20260501192314 15 257 0.0 1.6 0.00 0.00 0.00 52 1013.8
20260501191811 16 149 1.6 3.2 0.00 0.00 0.00 50 1013.9
20260501191308 16 55 3.2 4.8 0.00 0.00 0.00 45 1013.7
20260501190805 16 49 1.6 3.2 0.00 0.00 0.00 46 1013.6
20260501190301 17 221 0.0 3.2 0.00 0.00 0.00 43 1013.5
20260501185756 17 288 0.0 1.6 0.00 0.00 0.00 44 1013.8
20260501185252 17 206 0.0 0.0 0.00 0.00 0.00 46 1013.6
20260501184748 17 175 3.2 4.8 0.00 0.00 0.00 47 1013.6
20260501184244 18 269 1.6 6.4 0.00 0.00 0.00 43 1013.6
20260501183740 17 52 1.6 3.2 0.00 0.00 0.00 47 1013.8
20260501183237 16 265 1.6 4.8 0.00 0.00 0.00 45 1014.0
20260501182733 16 307 1.6 6.4 0.00 0.00 0.00 41 1014.0
20260501182231 16 89 3.2 4.8 0.00 0.00 0.00 41 1013.9
20260501181727 17 266 1.6 3.2 0.00 0.00 0.00 42 1014.0
20260501181225 16 126 3.2 4.8 0.00 0.00 0.00 49 1014.0
20260501180723 16 140 0.0 3.2 0.00 0.00 0.00 40 1014.1
20260501180218 16 108 0.0 4.8 0.00 0.00 0.00 41 1014.2
20260501175715 16 38 3.2 4.8 0.00 0.00 0.00 40 1014.2
20260501175212 17 42 4.8 6.4 0.00 0.00 0.00 42 1014.2
20260501174708 17 270 1.6 3.2 0.00 0.00 0.00 41 1014.2
20260501174206 17 97 0.0 6.4 0.00 0.00 0.00 41 1013.9
20260501173704 17 87 3.2 4.8 0.00 0.00 0.00 40 1014.0
20260501173201 16 289 3.2 4.8 0.00 0.00 0.00 40 1014.2
20260501172657 16 254 3.2 3.2 0.00 0.00 0.00 43 1014.2
20260501172152 17 36 6.4 9.7 0.00 0.00 0.00 41 1014.3
20260501171648 16 232 1.6 4.8 0.00 0.00 0.00 43 1014.1
20260501171145 16 221 0.0 3.2 0.00 0.00 0.00 44 1014.1
20260501170642 16 52 3.2 11.3 0.00 0.00 0.00 41 1014.8
20260501170139 16 54 3.2 4.8 0.00 0.00 0.00 39 1014.6
20260501165636 16 214 3.2 11.3 0.00 0.00 0.00 41 1014.7
20260501165133 15 228 3.2 6.4 0.00 0.00 0.00 44 1014.6
20260501164632 15 97 1.6 6.4 0.00 0.00 0.00 44 1014.4
20260501164128 15 81 3.2 4.8 0.00 0.00 0.00 44 1014.6
20260501163624 15 59 1.6 3.2 0.00 0.00 0.00 51 1014.4
20260501163122 15 87 0.0 3.2 0.00 0.00 0.00 48 1015.0
20260501162617 15 278 0.0 6.4 0.00 0.00 0.00 49 1014.9
20260501162114 15 303 1.6 4.8 0.00 0.00 0.00 47 1014.9
20260501161612 15 324 0.0 3.2 0.00 0.00 0.00 52 1014.8
20260501161109 15 57 0.0 6.4 0.00 0.00 0.00 52 1014.9